STARLINK-36742, 67907

Orbit data source: Space-Track

STARLINK-36742, 67907 is a payload satellite owned by SpaceX/Seattle (US) in LEO that was launched on Sun, 22 Feb 2026 UTC via an FALCON 9 launch vehicle from the Air Force Eastern Test Range (AFETR). Payload-class satellites include a variety of spacecraft equipped with specific instruments for various scientific and technological missions. These include communications satellites like Starlink; space stations such as the ISS; scientific satellites like the Hubble; Earth observation satellites from companies like Planet Labs, Umbra, and HawkEye 360; GPS; miniature CubeSats for education and research; and military/defense satellites.

Loading next visibility...
Identifier
67907, 2026-036D
Orbit
LEO
Country
Flag of USUS
Related business
Manufacturer
SpaceX/Seattle
Mission
Operational spacecraft
Bus & Motor
STARLINK V2MO, Unknown motor
Mass
575 kg wet, ~530 kg dry
Launch date (UTC)
2026-02-22 (2 months ago)
Launch vehicle
FALCON 9
Launch site
Air Force Eastern Test Range (AFETR)
Object type
Payload
Rocket body
Debris
Shape & HBR
Unknown shape, 17.7 m
Radar Cross Section
RCS unknown

Expand to show TLE details & history
Last TLE update: 19 hours ago

TLE from 19 hours ago
0 STARLINK-36742
1 67907U 26036D   26103.57107159  .00009654  00000-0  35987-3 0  9992
2 67907  43.0026  48.5469 0001673 258.7579 101.3084 15.27581233  9050
Epoch: 2026-04-13T13:42Z
TLE epoch observation values (Epoch: 2026-04-13T13:42:20.585Z)
Latitude
-0.00006°
Longitude
1.2013°
Altitude
483.046 km
Speed
7.626 km/s
True Right ascension
03h 14m 11s
True Declination
0° 00' 00"
Sunlit
Object was in daylight at epoch
Visualization orbit readout
Latitude
Unknown
Longitude
Unknown
Altitude
Unknown
Speed
Unknown
Apparent Right ascension
Unknown
Apparent Declination
Unknown
Sunlit
N/A
Visualization observer readout
Local Sidereal Time
15:07:43
Azimuth
Unknown
Elevation
Unknown
Doppler factor
Unknown
Orbital elements
Apogee altitude
486.138 km
Perigee altitude
483.842 km
Semi-major axis
6,863.127 km
Eccentricity
0.00017
Inclination
43.0026°
RAAN
48.5469°
Arg. of periapsis
258.7579°
True anomaly
101.3272°
Mean anomaly
101.3084°
Eccentric anomaly
101.3178°
Mean motion
3.81733 °/min
Orbital period
94.31 mins
BSTAR
0.00035987
Loading maneuver chart data...
Computing Atmospheric mass density...
Loading historical data...
Loading historical data...
Loading historical data...
Loading historical data...
Loading historical data...
Loading historical data...
Loading historical data...

Documentation

Showing up to 5 results
|